{"data":{"norad_id":41121,"epoch":"2026-05-24T21:16:46.928064Z","epoch_age_seconds":84539,"freshness":"FRESH","line1":"1 41121U 15075A   26144.88665426 -.00000141  00000+0  00000+0 0  9994","line2":"2 41121   0.0730  99.7041 0003240 319.5189 222.7060  1.00272225 38311","mean_motion":1.00272225,"eccentricity":0.000324,"inclination_deg":0.073,"raan_deg":99.7041,"arg_perigee_deg":319.5189,"mean_anomaly_deg":222.706,"bstar":0,"rev_number":3831,"period_min":1436.0906023577,"perigee_km":35772.810280478,"apogee_km":35800.13294686,"semimajor_km":42164.608613669,"source":"CELESTRAK","updated_at":"2026-05-25T13:38:13.998026Z"}}